Tracking 25710 objects as of 5-Jul-2022
HD Live streaming from Space Station
objects crossing your sky now

FENGYUN 1C DEB

Track FENGYUN 1C DEB now!
10-day predictions


NORAD ID: 30828
Int'l Code: 1999-025AVN
Perigee: 526.2 km
Apogee: 980.5 km
Inclination: 98.4 °
Period: 99.7 minutes
Semi major axis: 7124 km
RCS: 0.0024 m2 (small)
Launch date: May 10, 1999
Source: People's Republic of China (PRC)
Launch site: Taiyaun Space Center, China (TSC)

Note: This is SATELLITE DEBRIS
aabbcc
Your satellite tracking list
Your tracking list is empty




NASA's NSSDC Master Catalog

Two Line Element Set (TLE):
1 30828U 99025AVN 22185.48425163  .00003689  00000-0  59030-3 0  9993
2 30828  98.4380 263.3230 0318822 110.3694 266.1224 14.43735420803391
Source of the keplerian elements: AFSPC